Vertical_Velocity
-2 5 -3 -8 -5 -5 3 4 -0 6 3 1 -1 0 0 1 3 -2 -3 4 4 -4 -4 -1 3 6 5 -3 -7 -16 -8 -6 1 9 14 23 31 38 38 22 -4 28 5 11
12 -1 -6 -0 -0 2 1 1 3 5 1 -2 0 -0 0 0 -5 2 3 3 3 -3 3 4 -9 -19 -5 -10 14 9 7 -1 -2 -0 1 5 4 -2 3 7 5 12 19 21
3 4 -1 2 -0 3 -1 2 1 2 2 1 5 5 6 4 4 -1 -9 -4 -1 3 -5 -4 9 13 8 1 -2 -6 -4 -2 -9 -10 -8 -7 -8 -9 -8 -7 -5 -1 2 -4
-1 2 0 0 0 2 2 1 1 0 1 -1 1 -2 4 1 1 2 3 3 1 0 2 -0 -5 -5 -4 15 5 -2 -5 -9 -3 5 2 2 5 4 7 3 -2 -4 -1 2
-7 0 1 2 -3 -1 3 0 0 0 1 9 3 8 10 1 4 1 2 -2 5 1 -6 1 1 1 0 -0 11 1 -6 -0 5 -1 1 1 -2 2 0 -2 -9 -6 -1 3
-2 1 1 1 2 0 1 2 1 1 3 8 -8 2 1 1 -2 4 1 4 -3 -1 4 -11 9 1 3 -0 -3 -6 -3 -6 6 -4 -6 -8 -4 1 -1 -2 -3 -8 -9 -6
3 -3 2 -1 3 2 4 4 1 6 6 -6 -1 0 3 3 2 -2 1 1 2 -3 -0 -1 0 -5 -2 -1 -4 -4 -4 -3 5 -3 -2 -2 0 1 2 1 -1 1 -2 -6
5 10 -0 1 -1 1 -4 3 -0 -2 1 -4 0 -1 11 2 1 -1 -1 -4 1 -0 2 1 -0 0 -5 5 -3 -3 -6 5 -1 -6 -4 -1 0 -1 -3 -2 -3 -5 -4 -5
1 2 1 -1 1 3 -6 7 -10 8 -0 5 -3 3 2 2 3 -0 2 -2 1 1 1 2 -2 2 -4 -0 -1 -0 -1 -2 -3 -8 -4 -4 -2 -2 -3 -3 -2 -3 -6 -2
-4 -3 -2 4 1 -3 11 5 11 0 -1 -1 -3 1 1 3 2 2 1 0 -0 0 -1 -3 -2 1 1 -2 4 -2 -2 -5 -1 -3 -2 -2 -1 0 -2 -2 -8 -2 3 3
2 6 -9 4 0 -1 6 1 1 -6 -1 0 0 5 -0 -1 0 1 -0 1 1 1 1 -3 -1 0 3 -1 2 -1 -7 -3 -2 -2 -3 -1 -3 -7 -6 -7 2 -1 -3 -3
6 3 0 -3 1 1 2 0 -2 -5 -0 -1 1 4 0 -0 1 -2 -4 7 3 -1 1 1 -2 2 -0 3 2 -6 -4 -2 -2 -3 1 -4 -6 -4 5 0 -5 2 -1 -2
3 -3 -1 -8 16 -11 1 -4 0 -1 -1 -1 1 1 1 0 -0 2 2 -0 0 1 -1 0 -3 -1 -2 2 4 -5 -0 -2 -2 -2 -3 -5 2 3 -3 -3 -4 1 -1 0
1 1 9 6 7 1 0 -2 -2 -2 0 -2 -1 2 4 2 1 -2 2 -2 1 2 -0 1 -1 -2 -3 -1 9 -1 -3 -4 -2 -3 -1 -1 6 1 -3 -6 -2 -2 -1 -0
5 3 1 -0 1 -1 0 1 -1 -0 -3 2 1 -1 2 0 -1 3 2 -1 -1 -1 -1 0 -2 1 -1 1 10 -3 -2 1 -2 -7 3 -0 6 2 -3 -4 -4 0 -3 -2
-0 -2 -0 0 -0 -1 -1 -0 -0 -0 0 1 -0 3 0 2 9 -1 1 -1 -0 0 -0 -1 -1 0 0 1 4 -3 -4 -2 -1 -5 1 9 1 0 -2 -1 3 -0 -1 -5
-1 -0 -0 2 -1 -1 -5 3 2 1 -0 -0 -1 9 -0 -2 -0 4 -1 -1 1 0 1 -0 1 0 4 0 7 -4 -5 -2 -5 -3 9 -1 2 -2 -1 -1 1 2 1 -5
-0 -1 -1 1 2 0 -4 -0 1 -0 3 0 -1 0 2 4 4 2 2 -1 1 -1 -3 -3 3 -0 0 -1 4 8 8 -2 -2 -3 -3 -2 -1 -2 1 -1 -2 -3 0 -2
0 0 -1 -2 -0 1 -4 1 -3 1 7 1 -0 -0 -2 8 -0 -3 1 -2 -0 2 8 -7 5 4 0 -4 -1 -1 12 -3 -1 -3 -3 -2 1 0 -1 -2 -4 -2 2 0
0 -2 -2 0 -0 -0 -1 0 -1 1 3 1 2 2 3 -5 -4 6 -0 4 -2 5 5 -5 6 2 -1 -2 -1 2 0 -5 -3 -5 -2 -2 -1 -2 -0 -2 -1 0 4 4
-0 1 0 -0 0 2 -0 1 -2 4 6 6 -2 1 -3 2 8 2 1 -2 -1 7 7 4 12 2 5 0 2 6 0 -5 1 2 1 -0 -1 -2 2 -0 0 -0 -1 -2
-0 1 0 1 -0 -0 -4 2 -5 12 4 1 -5 3 5 2 0 -1 1 -1 16 4 -5 -9 -2 6 2 -4 1 0 -2 10 0 2 -0 -2 -1 -0 -0 -2 -3 0 -3 -3
3 -1 0 -0 4 5 3 0 8 -3 -7 -8 13 7 -1 -2 -2 2 7 4 -2 -1 -3 0 -2 -7 -8 -6 -2 -1 4 15 -2 0 -3 -2 0 -1 -0 -2 3 -2 -1 -3
2 -2 -1 -1 3 0 7 -2 -10 9 -12 13 -3 -1 1 6 4 11 -3 -3 -4 -6 -2 -2 -1 -2 -2 -1 0 2 -4 -4 13 -3 -3 0 -2 -4 -0 -2 1 0 -1 -1
-0 0 -3 5 4 1 -3 6 -4 7 6 8 5 -1 -5 9 -3 2 -2 -2 -3 -1 -2 -2 -1 -0 -1 1 -0 1 -0 -4 16 -2 -3 2 -2 -2 1 -0 1 -1 2 1
-3 -4 -1 1 0 -6 2 -6 5 0 -1 -2 -2 7 -3 -8 -2 1 -3 -2 -2 -2 0 -2 -0 1 0 -1 -0 -0 1 -4 19 -1 -5 1 -1 1 -0 -4 -3 9 1 2
Height
1502 1505 1504 1493 1489 1489 1486 1486 1489 1500 1504 1503 1506 1515 1523 1526 1530 1533 1533 1534 1537 1541 1543 1543 1544 1545 1545 1545 1543 1542 1541 1539 1537 1535 1532 1532 1531 1529 1527 1527 1524 1523 1523 1521
1499 1498 1487 1484 1486 1489 1489 1491 1494 1500 1505 1509 1507 1513 1518 1524 1527 1527 1529 1532 1536 1539 1541 1542 1543 1544 1543 1543 1541 1540 1538 1536 1534 1532 1529 1528 1525 1523 1521 1521 1520 1520 1518 1515
1493 1492 1489 1489 1490 1494 1490 1492 1492 1499 1506 1509 1506 1511 1515 1520 1523 1527 1532 1534 1536 1538 1540 1541 1542 1542 1541 1541 1539 1537 1536 1534 1533 1531 1527 1524 1521 1518 1516 1515 1514 1512 1510 1508
1488 1490 1492 1493 1494 1492 1499 1493 1495 1499 1511 1515 1502 1518 1513 1515 1521 1524 1528 1532 1536 1537 1539 1540 1541 1541 1541 1540 1537 1535 1533 1532 1531 1527 1524 1521 1518 1515 1513 1510 1508 1505 1502 1500
1491 1490 1493 1495 1493 1494 1501 1499 1501 1502 1508 1509 1506 1518 1510 1514 1519 1523 1528 1533 1535 1537 1540 1540 1541 1540 1540 1538 1535 1532 1531 1530 1528 1523 1520 1516 1512 1509 1506 1504 1501 1499 1497 1496
1488 1489 1491 1492 1497 1499 1500 1503 1503 1503 1506 1520 1506 1507 1517 1511 1514 1522 1528 1532 1535 1538 1539 1540 1539 1538 1538 1536 1533 1531 1530 1528 1524 1519 1516 1512 1508 1504 1501 1498 1496 1493 1492 1490
1485 1490 1491 1496 1499 1502 1505 1507 1519 1524 1521 1523 1498 1506 1509 1514 1515 1523 1528 1532 1535 1538 1539 1539 1538 1538 1537 1535 1532 1530 1528 1526 1522 1515 1511 1508 1504 1501 1497 1494 1491 1488 1485 1482
1489 1494 1488 1494 1496 1496 1503 1502 1514 1526 1516 1516 1505 1512 1514 1513 1520 1525 1530 1533 1535 1537 1538 1538 1537 1537 1536 1533 1531 1528 1527 1523 1517 1511 1507 1504 1500 1497 1494 1491 1487 1483 1480 1476
1500 1496 1494 1495 1496 1499 1496 1502 1496 1503 1498 1504 1511 1520 1515 1514 1522 1527 1530 1534 1535 1537 1537 1537 1537 1535 1534 1532 1530 1527 1524 1520 1515 1509 1505 1501 1498 1495 1492 1488 1484 1480 1476 1473
1500 1508 1493 1497 1502 1499 1499 1497 1505 1506 1534 1534 1506 1512 1521 1517 1521 1526 1530 1533 1535 1536 1537 1537 1536 1535 1533 1531 1529 1525 1521 1517 1513 1506 1501 1499 1496 1493 1489 1485 1480 1476 1472 1468
1499 1502 1499 1496 1499 1499 1500 1504 1500 1511 1535 1534 1523 1534 1518 1518 1522 1527 1530 1532 1534 1536 1536 1536 1535 1534 1532 1530 1527 1523 1519 1515 1509 1503 1499 1496 1493 1490 1486 1482 1477 1473 1468 1464
1504 1504 1503 1495 1493 1493 1494 1497 1503 1530 1538 1528 1522 1531 1521 1523 1526 1529 1531 1531 1533 1535 1535 1535 1534 1533 1531 1528 1525 1521 1517 1512 1506 1501 1497 1494 1491 1487 1484 1479 1474 1469 1464 1460
1512 1505 1508 1498 1496 1507 1510 1498 1497 1520 1527 1536 1528 1535 1522 1525 1527 1527 1529 1531 1533 1534 1535 1534 1533 1531 1529 1527 1523 1519 1515 1508 1503 1498 1495 1492 1489 1486 1482 1476 1471 1466 1461 1456
1516 1509 1508 1516 1516 1514 1519 1522 1500 1511 1526 1526 1525 1526 1524 1524 1525 1528 1529 1532 1534 1534 1534 1533 1532 1530 1528 1525 1522 1517 1512 1506 1501 1496 1494 1491 1487 1483 1478 1473 1468 1462 1457 1452
1514 1514 1513 1511 1511 1510 1517 1516 1511 1514 1514 1522 1524 1525 1527 1526 1528 1528 1530 1532 1533 1533 1533 1532 1531 1529 1526 1524 1520 1515 1511 1505 1499 1495 1493 1489 1485 1480 1474 1470 1464 1458 1453 1447
1516 1524 1518 1523 1520 1522 1528 1520 1513 1511 1508 1522 1526 1528 1526 1525 1524 1528 1531 1533 1534 1534 1533 1532 1530 1528 1525 1523 1518 1513 1509 1504 1498 1495 1490 1487 1483 1477 1472 1466 1459 1454 1449 1444
1517 1518 1521 1529 1527 1538 1536 1537 1529 1532 1522 1525 1530 1531 1534 1532 1530 1531 1534 1535 1535 1534 1533 1531 1529 1527 1524 1521 1517 1512 1506 1502 1497 1492 1489 1485 1480 1475 1469 1463 1456 1451 1446 1442
1518 1520 1522 1532 1533 1542 1541 1533 1529 1528 1528 1530 1530 1533 1534 1533 1534 1535 1536 1536 1536 1534 1533 1531 1529 1526 1523 1521 1517 1512 1506 1501 1496 1490 1486 1482 1477 1472 1466 1461 1454 1448 1444 1439
1518 1517 1526 1530 1537 1543 1538 1533 1536 1533 1537 1534 1537 1536 1535 1533 1535 1539 1537 1537 1536 1534 1532 1531 1528 1525 1522 1520 1516 1512 1508 1500 1496 1489 1483 1479 1475 1470 1465 1459 1453 1447 1441 1437
1519 1518 1527 1526 1529 1543 1536 1532 1534 1532 1540 1537 1537 1538 1536 1535 1539 1538 1538 1537 1536 1534 1532 1531 1528 1525 1522 1519 1515 1511 1506 1500 1495 1488 1482 1478 1475 1470 1464 1459 1452 1446 1440 1435
1524 1526 1531 1529 1535 1540 1533 1535 1536 1544 1552 1539 1540 1541 1540 1539 1539 1540 1538 1537 1536 1534 1532 1530 1528 1525 1522 1518 1514 1510 1506 1499 1495 1489 1482 1477 1474 1469 1465 1459 1453 1447 1440 1435
1525 1528 1534 1532 1538 1546 1536 1537 1543 1542 1542 1542 1543 1541 1540 1539 1540 1540 1539 1538 1536 1534 1531 1530 1528 1525 1521 1518 1514 1510 1506 1500 1495 1489 1482 1477 1473 1469 1464 1460 1454 1448 1442 1437
1532 1533 1535 1537 1539 1536 1538 1540 1541 1543 1545 1543 1542 1541 1541 1541 1542 1541 1540 1538 1537 1535 1533 1532 1528 1524 1520 1517 1512 1509 1506 1503 1496 1490 1482 1477 1473 1469 1465 1460 1454 1450 1444 1439
1532 1535 1536 1535 1542 1540 1541 1543 1544 1544 1545 1543 1544 1544 1544 1543 1543 1542 1541 1540 1538 1536 1533 1531 1528 1524 1520 1516 1511 1507 1503 1501 1498 1491 1485 1479 1474 1470 1466 1462 1456 1452 1447 1441
1529 1533 1531 1534 1540 1542 1544 1545 1545 1545 1545 1546 1547 1547 1548 1546 1545 1545 1544 1542 1540 1538 1535 1532 1529 1525 1521 1517 1512 1507 1503 1500 1499 1493 1487 1481 1476 1471 1468 1463 1459 1454 1449 1445
1529 1530 1528 1531 1538 1541 1544 1547 1547 1548 1549 1550 1550 1550 1549 1550 1549 1548 1546 1545 1543 1541 1538 1534 1531 1527 1524 1519 1514 1508 1504 1500 1500 1494 1489 1483 1478 1473 1470 1466 1462 1458 1452 1448